CW6413 Weather Reports


time (UTC)temp
C
wind
direction
speed
KPH
gust
KPH
rain 1hr
cm
rain 24hr
cm
rain mn
cm
humidity
%
barometer
mb
20260510020308 14 310 4.8 8.0 0.00 0.00 0.00 77 1012.0
20260510015808 14 307 4.8 8.0 0.00 0.00 0.00 77 1011.9
20260510015307 15 302 1.6 3.2 0.00 0.00 0.00 78 1011.9
20260510014807 15 303 0.0 8.0 0.00 0.00 0.00 76 1011.8
20260510013808 15 295 3.2 4.8 0.00 0.00 0.00 75 1011.7
20260510013307 15 292 6.4 9.7 0.00 0.00 0.00 72 1011.5
20260510012807 15 308 6.4 9.7 0.00 0.00 0.00 75 1011.4
20260510012307 16 298 4.8 8.0 0.00 0.00 0.00 73 1011.4
20260510011808 16 307 8.0 9.7 0.00 0.00 0.00 71 1011.2
20260510011307 16 312 8.0 11.3 0.00 0.00 0.00 70 1011.2
20260510010807 15 307 8.0 9.7 0.00 0.00 0.00 73 1011.3
20260510010308 15 303 3.2 8.0 0.00 0.00 0.00 75 1011.3
20260510005807 15 298 6.4 8.0 0.00 0.00 0.00 74 1011.1
20260510004807 16 308 4.8 9.7 0.00 0.00 0.00 73 1011.0
20260510004307 16 303 8.0 9.7 0.00 0.00 0.00 71 1010.9
20260510003808 16 313 8.0 9.7 0.00 0.00 0.00 71 1010.8
20260510003307 17 311 8.0 9.7 0.00 0.00 0.00 69 1010.7
20260510002808 17 306 8.0 9.7 0.00 0.00 0.00 69 1010.6
20260510002308 17 307 8.0 9.7 0.00 0.00 0.00 69 1010.6
20260510001807 17 308 8.0 9.7 0.00 0.00 0.00 67 1010.5
20260510001307 17 310 8.0 9.7 0.00 0.00 0.00 67 1010.4
20260510000807 17 305 8.0 9.7 0.00 0.00 0.00 66 1010.4
20260510000308 18 309 8.0 9.7 0.00 0.00 0.00 65 1010.3
20260509235807 18 306 8.0 9.7 0.00 0.00 0.00 64 1010.3
20260509234308 19 319 8.0 8.0 0.00 0.00 0.00 62 1010.3
20260509233807 20 306 4.8 8.0 0.00 0.00 0.00 61 1010.4
20260509233308 20 308 4.8 8.0 0.00 0.00 0.00 58 1010.3
20260509232807 21 301 4.8 8.0 0.00 0.00 0.00 57 1010.3
20260509232307 21 258 4.8 8.0 0.00 0.00 0.00 55 1010.3
20260509231808 21 254 3.2 8.0 0.00 0.00 0.00 54 1010.2
20260509231307 22 232 4.8 8.0 0.00 0.00 0.00 50 1010.2
20260509230807 22 239 4.8 11.3 0.00 0.00 0.00 49 1010.2
20260509230307 22 221 6.4 12.9 0.00 0.00 0.00 49 1010.2
20260509225807 22 227 4.8 16.1 0.00 0.00 0.00 50 1010.2
20260509225308 22 224 8.0 12.9 0.00 0.00 0.00 48 1010.1
20260509224308 22 230 6.4 12.9 0.00 0.00 0.00 46 1010.2
20260509223807 22 229 6.4 19.3 0.00 0.00 0.00 46 1010.2
20260509223307 22 214 8.0 16.1 0.00 0.00 0.00 46 1010.1
20260509222307 23 210 11.3 16.1 0.00 0.00 0.00 46 1010.1
20260509221807 23 229 8.0 14.5 0.00 0.00 0.00 45 1010.0
20260509221308 23 204 8.0 16.1 0.00 0.00 0.00 45 1010.0
20260509220807 23 205 11.3 20.9 0.00 0.00 0.00 44 1010.0
20260509220307 23 232 11.3 19.3 0.00 0.00 0.00 44 1010.0
20260509215808 23 245 8.0 12.9 0.00 0.00 0.00 44 1010.0
20260509215307 22 201 4.8 11.3 0.00 0.00 0.00 44 1010.0
20260509213807 22 212 6.4 11.3 0.00 0.00 0.00 44 1010.0
20260509212808 22 171 4.8 12.9 0.00 0.00 0.00 46 1009.9
20260509212307 22 222 9.7 14.5 0.00 0.00 0.00 45 1010.0
20260509211807 22 227 9.7 16.1 0.00 0.00 0.00 44 1009.9
20260509211307 22 210 6.4 16.1 0.00 0.00 0.00 45 1009.9
20260509210808 22 206 4.8 12.9 0.00 0.00 0.00 46 1009.9
20260509210307 22 206 3.2 9.7 0.00 0.00 0.00 46 1009.9
20260509205808 22 205 6.4 12.9 0.00 0.00 0.00 45 1009.9
20260509205307 22 216 8.0 14.5 0.00 0.00 0.00 45 1009.9
20260509204807 22 215 9.7 16.1 0.00 0.00 0.00 44 1009.8
20260509204307 22 200 9.7 14.5 0.00 0.00 0.00 44 1009.7
20260509203807 22 197 6.4 11.3 0.00 0.00 0.00 45 1009.7
20260509203308 22 211 4.8 9.7 0.00 0.00 0.00 45 1009.8
20260509202807 22 214 8.0 12.9 0.00 0.00 0.00 44 1009.8
20260509202307 22 207 4.8 14.5 0.00 0.00 0.00 44 1009.9
20260509201807 23 203 12.9 20.9 0.00 0.00 0.00 43 1009.8
20260509201307 23 200 4.8 12.9 0.00 0.00 0.00 44 1009.8
20260509200808 23 223 9.7 19.3 0.00 0.00 0.00 43 1009.9
20260509200307 23 231 6.4 16.1 0.00 0.00 0.00 45 1009.9
20260509195807 22 235 3.2 9.7 0.00 0.00 0.00 44 1009.8
20260509195307 22 127 4.8 19.3 0.00 0.00 0.00 44 1009.9
20260509194807 22 203 8.0 20.9 0.00 0.00 0.00 46 1010.0
20260509194307 22 240 6.4 11.3 0.00 0.00 0.00 46 1010.1
20260509193308 21 259 3.2 9.7 0.00 0.00 0.00 48 1010.3
20260509192807 21 248 8.0 16.1 0.00 0.00 0.00 48 1010.4
20260509192307 22 210 6.4 16.1 0.00 0.00 0.00 48 1010.5
20260509191807 22 196 8.0 14.5 0.00 0.00 0.00 47 1010.4
20260509191307 22 204 8.0 16.1 0.00 0.00 0.00 47 1010.5
20260509190808 22 231 6.4 14.5 0.00 0.00 0.00 46 1010.5
20260509190307 22 240 6.4 14.5 0.00 0.00 0.00 48 1010.6
20260509185807 22 222 9.7 20.9 0.00 0.00 0.00 48 1010.7
20260509185307 22 218 9.7 16.1 0.00 0.00 0.00 50 1010.8
20260509184807 22 168 3.2 9.7 0.00 0.00 0.00 49 1010.7
20260509184307 21 267 11.3 14.5 0.00 0.00 0.00 49 1010.7
20260509183808 21 216 9.7 19.3 0.00 0.00 0.00 49 1010.8
20260509183308 21 155 9.7 16.1 0.00 0.00 0.00 50 1010.8
20260509182807 21 219 9.7 14.5 0.00 0.00 0.00 51 1010.9
20260509182307 21 228 4.8 9.7 0.00 0.00 0.00 53 1011.0
20260509181807 20 201 6.4 11.3 0.00 0.00 0.00 53 1011.1
20260509181307 20 202 8.0 12.9 0.00 0.00 0.00 53 1011.3
20260509180807 20 231 9.7 22.5 0.00 0.00 0.00 53 1011.5
20260509174807 20 160 8.0 14.5 0.00 0.00 0.00 55 1011.8
20260509174307 19 141 9.7 14.5 0.00 0.00 0.00 56 1011.9
20260509173807 19 168 11.3 16.1 0.00 0.00 0.00 56 1011.9
20260509173308 19 191 9.7 14.5 0.00 0.00 0.00 57 1012.0
20260509172807 19 200 9.7 14.5 0.00 0.00 0.00 57 1012.0
20260509172307 19 212 8.0 16.1 0.00 0.00 0.00 57 1012.1
20260509171807 19 164 9.7 14.5 0.00 0.00 0.00 57 1012.1
20260509171308 19 168 11.3 19.3 0.00 0.00 0.00 56 1012.1
20260509170808 20 198 8.0 14.5 0.00 0.00 0.00 56 1012.1
20260509170307 20 206 11.3 16.1 0.00 0.00 0.00 57 1012.1
20260509165807 20 215 4.8 14.5 0.00 0.00 0.00 56 1012.1
20260509165307 20 191 11.3 20.9 0.00 0.00 0.00 55 1012.0
20260509164807 20 187 3.2 12.9 0.00 0.00 0.00 54 1011.9
20260509164307 20 201 9.7 24.1 0.00 0.00 0.00 53 1012.0
20260509163307 19 256 8.0 20.9 0.00 0.00 0.00 54 1012.0
20260509162807 19 204 8.0 12.9 0.00 0.00 0.00 55 1011.9
20260509161807 18 209 8.0 12.9 0.00 0.00 0.00 55 1012.1
20260509161307 18 251 6.4 12.9 0.00 0.00 0.00 54 1012.1
20260509160807 18 241 9.7 12.9 0.00 0.00 0.00 56 1012.1
20260509160307 18 160 8.0 16.1 0.00 0.00 0.00 56 1012.2
20260509155807 18 182 6.4 20.9 0.00 0.00 0.00 56 1012.3
20260509155307 18 182 8.0 12.9 0.00 0.00 0.00 56 1012.3
20260509154807 18 276 8.0 12.9 0.00 0.00 0.00 56 1012.3
20260509154307 18 260 4.8 11.3 0.00 0.00 0.00 56 1012.4
20260509153807 18 254 4.8 12.9 0.00 0.00 0.00 56 1012.5
20260509153307 18 194 9.7 14.5 0.00 0.00 0.00 55 1012.4
20260509152807 17 195 4.8 14.5 0.00 0.00 0.00 57 1012.3
20260509152307 17 209 4.8 11.3 0.00 0.00 0.00 56 1012.3
20260509151807 17 248 4.8 12.9 0.00 0.00 0.00 57 1012.3
20260509151307 16 219 9.7 14.5 0.00 0.00 0.00 59 1012.2
20260509150807 16 211 9.7 19.3 0.00 0.00 0.00 59 1012.3
20260509150308 16 184 6.4 14.5 0.00 0.00 0.00 57 1012.6
20260509145808 16 206 14.5 19.3 0.00 0.00 0.00 58 1012.7
20260509145307 16 191 11.3 16.1 0.00 0.00 0.00 58 1012.5
20260509144807 16 215 8.0 14.5 0.00 0.00 0.00 60 1012.5
20260509144307 15 172 9.7 16.1 0.00 0.00 0.00 61 1012.6
20260509143807 15 173 9.7 14.5 0.00 0.00 0.00 61 1012.4
20260509143307 15 165 9.7 14.5 0.00 0.00 0.00 61 1012.4
20260509142807 15 165 8.0 14.5 0.00 0.00 0.00 62 1012.4
20260509141807 15 150 8.0 9.7 0.00 0.00 0.00 64 1012.4
20260509141307 14 120 3.2 8.0 0.00 0.00 0.00 63 1012.5
20260509140807 14 115 3.2 8.0 0.00 0.00 0.00 64 1012.5
20260509135807 13 182 4.8 9.7 0.00 0.00 0.00 66 1012.9
20260509135307 13 140 6.4 8.0 0.00 0.00 0.00 67 1012.9
20260509134807 13 176 4.8 4.8 0.00 0.00 0.00 67 1013.0
20260509134307 13 132 3.2 4.8 0.00 0.00 0.00 66 1013.0
20260509133808 13 193 1.6 4.8 0.00 0.00 0.00 66 1013.1
20260509133307 13 151 1.6 4.8 0.00 0.00 0.00 65 1013.1
20260509132807 13 306 0.0 0.0 0.00 0.00 0.00 64 1013.1
20260509132307 13 306 0.0 1.6 0.00 0.00 0.00 64 1013.2
20260509131807 13 172 1.6 4.8 0.00 0.00 0.00 66 1013.2
20260509131307 13 201 3.2 4.8 0.00 0.00 0.00 65 1013.2
20260509130807 13 209 1.6 3.2 0.00 0.00 0.00 67 1013.3
20260509130307 13 260 1.6 3.2 0.00 0.00 0.00 66 1013.2
20260509125807 12 255 0.0 1.6 0.00 0.00 0.00 65 1013.1
20260509125308 12 162 1.6 3.2 0.00 0.00 0.00 67 1013.1
20260509124807 12 95 0.0 3.2 0.00 0.00 0.00 67 1013.0
20260509124307 12 76 0.0 1.6 0.00 0.00 0.00 67 1013.1
20260509123807 12 82 0.0 1.6 0.00 0.00 0.00 66 1013.1
20260509123307 12 124 0.0 3.2 0.00 0.00 0.00 66 1013.1
20260509122807 12 152 1.6 4.8 0.00 0.00 0.00 66 1013.2
20260509122307 12 114 3.2 3.2 0.00 0.00 0.00 67 1013.1
20260509121807 12 151 1.6 3.2 0.00 0.00 0.00 66 1013.1
20260509121307 12 261 0.0 1.6 0.00 0.00 0.00 65 1013.1
20260509120807 12 286 0.0 3.2 0.00 0.00 0.00 66 1013.1
20260509120307 12 321 3.2 4.8 0.00 0.00 0.00 66 1013.1
20260509115807 12 289 0.0 1.6 0.00 0.00 0.00 67 1013.2
20260509115308 11 147 0.0 0.0 0.00 0.00 0.00 69 1013.2
20260509114807 11 147 0.0 0.0 0.00 0.00 0.00 73 1013.2
20260509114307 11 147 0.0 0.0 0.00 0.00 0.00 74 1013.2
20260509113807 11 147 0.0 0.0 0.00 0.00 0.00 76 1013.3
20260509113307 11 147 0.0 3.2 0.00 0.00 0.00 77 1013.2
20260509112806 11 167 1.6 4.8 0.00 0.00 0.00 75 1013.1
20260509112307 11 270 0.0 0.0 0.00 0.00 0.00 74 1013.1
20260509111307 10 305 3.2 3.2 0.00 0.00 0.00 83 1013.0
20260509110807 10 55 0.0 0.0 0.00 0.00 0.00 81 1013.0
20260509110307 10 55 0.0 0.0 0.00 0.00 0.00 83 1013.0
20260509105307 10 51 1.6 3.2 0.00 0.00 0.00 75 1013.0
20260509104807 10 258 0.0 0.0 0.00 0.00 0.00 78 1013.1
20260509104307 10 258 0.0 3.2 0.00 0.00 0.00 76 1013.1
20260509103808 10 290 3.2 3.2 0.00 0.00 0.00 77 1013.0
20260509103307 10 299 1.6 3.2 0.00 0.00 0.00 76 1013.0
20260509102307 10 285 0.0 3.2 0.00 0.00 0.00 76 1013.0
20260509101807 10 275 0.0 1.6 0.00 0.00 0.00 77 1013.0
20260509101307 10 260 0.0 0.0 0.00 0.00 0.00 77 1013.0
20260509095306 10 306 6.4 8.0 0.00 0.00 0.00 70 1012.9
20260509094807 10 302 4.8 8.0 0.00 0.00 0.00 74 1013.0
20260509094307 10 295 4.8 4.8 0.00 0.00 0.00 75 1013.0
20260509093807 10 301 4.8 4.8 0.00 0.00 0.00 76 1013.1
20260509093307 10 238 0.0 1.6 0.00 0.00 0.00 76 1013.1
20260509092807 11 175 0.0 4.8 0.00 0.00 0.00 73 1013.2
20260509092307 11 310 4.8 8.0 0.00 0.00 0.00 67 1013.2
20260509091807 10 314 4.8 8.0 0.00 0.00 0.00 72 1013.3
20260509091307 10 311 3.2 4.8 0.00 0.00 0.00 72 1013.2
20260509090807 10 303 3.2 4.8 0.00 0.00 0.00 72 1013.3
20260509085807 10 296 1.6 3.2 0.00 0.00 0.00 71 1013.4
20260509085307 10 338 1.6 3.2 0.00 0.00 0.00 72 1013.4
20260509084807 10 325 0.0 3.2 0.00 0.00 0.00 69 1013.4
20260509084307 10 289 1.6 3.2 0.00 0.00 0.00 72 1013.3
20260509083307 10 266 0.0 3.2 0.00 0.00 0.00 76 1013.3
20260509082307 10 296 0.0 3.2 0.00 0.00 0.00 73 1013.3
20260509081807 10 305 1.6 3.2 0.00 0.00 0.00 73 1013.4
20260509081307 10 308 1.6 3.2 0.00 0.00 0.00 73 1013.4
20260509080806 10 267 0.0 3.2 0.00 0.00 0.00 72 1013.4
20260509080307 11 313 0.0 3.2 0.00 0.00 0.00 73 1013.4
20260509075807 11 301 1.6 3.2 0.00 0.00 0.00 73 1013.4
20260509075306 11 306 3.2 4.8 0.00 0.00 0.00 70 1013.4
20260509074307 10 292 3.2 4.8 0.00 0.00 0.00 74 1013.6
20260509073806 10 240 0.0 1.6 0.00 0.00 0.00 75 1013.6
20260509073307 10 284 0.0 3.2 0.00 0.00 0.00 75 1013.7
20260509072807 11 313 1.6 3.2 0.00 0.00 0.00 76 1013.7
20260509071807 11 275 3.2 4.8 0.00 0.00 0.00 69 1013.6
20260509071307 10 319 4.8 4.8 0.00 0.00 0.00 74 1013.7
20260509070307 10 282 0.0 1.6 0.00 0.00 0.00 77 1013.8
20260509065807 10 172 1.6 4.8 0.00 0.00 0.00 75 1013.8
20260509065307 10 323 3.2 4.8 0.00 0.00 0.00 73 1013.8
20260509064807 10 167 0.0 3.2 0.00 0.00 0.00 74 1013.9
20260509063807 10 314 1.6 3.2 0.00 0.00 0.00 70 1013.9
20260509063307 10 270 3.2 3.2 0.00 0.00 0.00 69 1014.0
20260509062807 10 302 1.6 3.2 0.00 0.00 0.00 72 1014.1
20260509061806 10 310 0.0 0.0 0.00 0.00 0.00 74 1014.1
20260509061307 10 310 3.2 4.8 0.00 0.00 0.00 72 1014.2
20260509060807 10 304 3.2 4.8 0.00 0.00 0.00 72 1014.2
20260509060307 10 309 1.6 4.8 0.00 0.00 0.00 72 1014.2
20260509055807 10 330 3.2 8.0 0.00 0.00 0.00 70 1014.2
20260509055307 9 318 3.2 8.0 0.00 0.00 0.00 73 1014.2
20260509054807 9 319 3.2 8.0 0.00 0.00 0.00 73 1014.3
20260509054307 10 300 1.6 3.2 0.00 0.00 0.00 72 1014.3
20260509052807 10 312 6.4 9.7 0.00 0.00 0.00 71 1014.3
20260509052307 10 305 8.0 8.0 0.00 0.00 0.00 69 1014.3
20260509051807 10 306 1.6 8.0 0.00 0.00 0.00 73 1014.3
20260509051307 10 288 4.8 8.0 0.00 0.00 0.00 70 1014.3
20260509050807 10 340 1.6 8.0 0.00 0.00 0.00 71 1014.3
20260509050307 10 306 4.8 8.0 0.00 0.00 0.00 70 1014.3
20260509045806 10 304 3.2 4.8 0.00 0.00 0.00 70 1014.3
20260509045307 10 311 4.8 8.0 0.00 0.00 0.00 68 1014.3
20260509044807 10 320 4.8 8.0 0.00 0.00 0.00 70 1014.4
20260509043807 11 323 3.2 8.0 0.00 0.00 0.00 65 1014.3
20260509043307 11 302 4.8 8.0 0.00 0.00 0.00 67 1014.3
20260509042807 11 298 1.6 8.0 0.00 0.00 0.00 65 1014.3
20260509042307 11 330 1.6 4.8 0.00 0.00 0.00 68 1014.2
20260509041807 11 279 4.8 8.0 0.00 0.00 0.00 64 1014.2
20260509040807 10 305 3.2 4.8 0.00 0.00 0.00 70 1014.3
20260509040307 10 313 3.2 4.8 0.00 0.00 0.00 69 1014.4
20260509035807 10 312 3.2 4.8 0.00 0.00 0.00 68 1014.4
20260509035307 10 320 1.6 8.0 0.00 0.00 0.00 71 1014.4
20260509034807 10 313 3.2 8.0 0.00 0.00 0.00 70 1014.5
20260509034306 10 313 1.6 4.8 0.00 0.00 0.00 68 1014.5
20260509032307 11 322 4.8 8.0 0.00 0.00 0.00 70 1014.5
20260509031806 11 314 4.8 4.8 0.00 0.00 0.00 67 1014.5
20260509031307 11 307 4.8 8.0 0.00 0.00 0.00 67 1014.6
20260509030307 11 321 3.2 4.8 0.00 0.00 0.00 68 1014.7
20260509025807 11 329 3.2 4.8 0.00 0.00 0.00 70 1014.7
20260509025307 11 287 0.0 8.0 0.00 0.00 0.00 68 1014.6
20260509024807 11 323 4.8 11.3 0.00 0.00 0.00 64 1014.6
20260509024307 11 300 4.8 4.8 0.00 0.00 0.00 70 1014.8
20260509023806 11 312 3.2 4.8 0.00 0.00 0.00 69 1014.7
20260509023307 11 321 3.2 4.8 0.00 0.00 0.00 68 1014.8
20260509022807 11 310 4.8 4.8 0.00 0.00 0.00 68 1014.8
20260509022307 11 327 3.2 4.8 0.00 0.00 0.00 67 1014.7
20260509021807 11 324 3.2 4.8 0.00 0.00 0.00 68 1014.7
20260509021306 11 307 3.2 3.2 0.00 0.00 0.00 67 1014.7
20260509020807 11 312 0.0 4.8 0.00 0.00 0.00 66 1014.6